Wind_Speed
21 21 20 20 20 20 20 20 20 19 18 17 16 15 15 14 14 15 16 16 16 15 15 15 16 16 16 16 17 17 18 19 20 21 22 22 21 21 20 20 19 19 19 20 20 21 20 20 20 21 21 23 25 25 25 24 23 23 25 26 25 23 22 22 23 25 26 25 24 24 24 25 26 27 29 30 28 27 25 24 23 22 22 20 17
20 20 20 20 20 20 20 20 19 19 18 17 17 16 16 15 15 16 16 16 16 16 16 16 17 17 17 17 18 18 19 20 21 22 22 22 22 21 20 20 20 20 21 22 21 20 19 21 23 24 23 24 25 25 26 26 25 23 23 24 25 24 23 22 23 25 27 26 25 26 25 25 27 27 29 31 31 30 27 25 24 23 23 21 19
19 20 21 21 21 21 20 20 19 19 18 17 17 17 17 16 16 16 16 16 17 17 17 17 18 18 18 18 19 20 20 20 21 22 23 22 22 21 20 20 21 22 23 22 22 21 22 25 26 25 25 25 25 25 25 26 27 26 24 24 25 24 24 23 23 24 26 26 26 28 27 26 28 28 28 30 33 32 29 27 25 23 22 20 20
18 19 21 22 22 21 21 20 20 19 19 18 18 18 18 17 16 16 16 17 17 18 18 18 19 19 19 19 20 20 21 21 21 22 23 23 22 21 21 21 21 22 23 22 23 23 24 26 27 28 28 27 26 25 25 26 27 27 27 26 26 25 24 24 24 24 25 26 27 29 28 27 28 28 29 31 32 32 30 29 26 23 21 20 21
17 18 20 21 22 21 21 20 20 19 19 19 19 19 18 18 17 16 17 17 18 19 19 19 20 20 20 20 21 21 21 21 22 23 23 23 23 22 21 21 21 22 23 23 24 24 26 27 29 30 29 28 27 26 26 27 27 28 28 27 26 26 25 23 24 25 25 27 28 28 28 28 26 27 30 32 31 30 30 29 27 25 23 22 23
17 16 16 19 20 20 20 20 19 19 20 20 20 20 20 19 18 18 18 18 19 20 20 20 20 21 21 22 22 22 22 22 23 23 24 24 24 23 22 21 22 22 23 24 24 26 27 29 30 30 29 28 27 26 27 29 29 29 28 28 27 28 27 24 24 26 26 27 27 26 27 27 25 28 31 32 31 30 30 30 28 26 24 24 24
17 15 15 18 20 21 21 20 20 20 21 22 22 22 21 20 20 19 19 19 19 20 20 21 21 22 22 22 23 23 23 23 23 24 24 25 24 23 23 22 22 23 24 24 25 27 29 30 31 31 30 29 28 27 27 28 30 30 29 29 28 28 29 26 25 26 26 26 26 25 26 26 25 27 28 30 32 32 31 31 29 27 25 24 24
18 14 13 16 21 23 22 21 22 22 22 22 23 23 23 22 21 20 20 19 20 20 21 22 22 23 23 23 23 23 23 24 24 24 24 25 25 24 23 23 23 23 24 25 26 27 29 30 31 32 31 31 31 31 30 30 31 31 30 29 29 29 29 28 26 26 25 25 25 25 27 27 26 26 27 29 31 32 32 31 29 27 26 25 26
15 11 8 11 19 24 24 23 24 24 23 23 23 24 24 23 22 21 20 20 20 21 22 23 23 23 23 23 24 24 23 24 24 24 24 25 25 24 24 23 24 24 25 25 26 27 29 30 31 31 32 33 34 35 35 35 34 34 32 31 30 29 28 28 28 27 26 25 25 25 27 28 27 27 29 30 29 30 31 30 30 29 27 27 27
11 8 9 11 17 24 26 26 27 26 25 24 23 24 24 24 23 22 21 20 21 22 23 23 23 23 23 23 24 24 24 24 24 24 24 25 25 25 24 23 24 25 26 26 27 28 29 30 31 31 32 33 35 37 38 38 38 36 34 32 31 29 29 28 28 28 26 25 26 26 27 28 27 28 29 30 29 29 31 32 31 29 29 29 28
9 9 12 15 18 24 26 27 28 27 25 23 23 23 23 23 23 22 21 21 22 23 23 24 24 24 24 24 25 25 25 25 25 24 24 25 25 25 24 23 24 25 26 27 28 29 30 31 31 31 32 33 34 36 38 39 39 38 35 33 31 30 29 29 28 28 26 25 26 27 27 28 29 30 30 30 31 31 32 33 32 31 30 29 27
10 12 14 17 20 22 22 21 19 20 22 22 22 23 23 23 23 22 22 23 23 23 24 25 25 25 25 25 26 27 27 26 26 25 25 25 25 25 24 24 24 24 26 27 28 30 31 32 32 31 31 32 33 35 37 38 38 37 35 33 31 30 29 28 28 27 26 26 26 28 29 29 30 32 33 32 32 32 33 33 34 32 30 29 28
12 13 15 16 18 18 18 18 16 14 18 20 20 22 23 23 23 23 24 24 24 25 25 25 25 26 26 26 27 27 27 27 26 26 26 26 25 26 25 25 24 24 26 27 29 30 32 32 32 32 32 32 34 36 37 37 36 35 34 33 31 29 28 27 27 27 27 26 27 30 30 28 28 31 32 33 34 33 32 32 32 31 28 28 28
14 14 15 14 15 16 17 18 16 14 16 19 20 21 23 23 24 25 26 26 26 26 26 26 26 26 27 27 27 28 27 27 27 27 27 26 26 26 26 25 25 25 26 27 29 30 31 32 32 31 32 33 34 36 37 36 34 33 33 32 30 28 27 27 27 28 27 26 27 30 29 25 25 28 30 32 35 34 33 32 31 30 28 28 28
17 16 15 15 15 16 17 19 17 16 17 19 21 23 24 25 26 27 27 27 26 27 27 27 27 28 28 28 29 29 28 27 27 27 27 27 27 26 26 26 25 26 27 28 29 30 31 31 31 31 32 33 34 36 35 34 32 32 32 30 28 26 25 25 26 27 27 26 26 27 29 27 26 28 27 30 34 35 34 33 32 31 29 29 28
20 18 16 17 18 16 17 20 21 21 22 22 23 25 26 26 27 27 27 27 27 28 29 29 29 29 29 29 30 29 28 27 27 27 28 27 27 26 26 26 25 25 26 27 28 29 30 30 30 31 32 32 34 35 34 32 31 30 28 26 25 24 23 23 23 25 26 25 24 25 28 28 27 28 28 29 33 36 36 34 32 32 30 30 29
22 20 18 17 19 19 17 19 22 24 24 25 26 26 26 27 28 27 27 28 29 29 29 30 30 30 30 30 30 29 29 28 28 28 28 27 27 26 26 26 25 25 26 26 27 28 29 30 30 30 32 32 33 34 32 30 28 27 24 23 22 21 20 21 21 22 23 23 23 23 25 26 28 30 29 30 32 34 35 34 33 32 31 31 30
24 23 20 17 18 21 20 20 23 25 25 26 27 26 26 28 29 28 28 29 29 29 30 31 31 31 31 31 30 30 29 29 29 29 28 27 27 26 26 26 25 25 25 26 26 27 28 29 29 30 31 32 32 33 31 27 26 25 22 20 19 18 18 19 19 18 19 21 21 22 22 21 27 31 29 29 30 31 33 33 33 32 31 31 30
25 24 22 18 18 20 21 21 22 25 27 27 27 27 27 28 29 28 29 29 29 30 31 32 32 32 32 31 31 31 30 30 30 29 28 27 27 27 26 26 25 25 25 25 25 26 27 28 28 29 30 31 32 32 30 26 24 23 21 18 16 15 15 16 16 15 17 19 19 20 20 19 22 28 29 28 29 30 31 32 32 32 32 32 31
26 25 22 19 19 20 21 22 22 24 26 27 28 28 29 29 29 29 29 29 29 31 32 33 33 33 32 32 32 32 31 31 31 30 29 28 27 27 26 25 25 25 25 25 25 25 26 26 27 28 29 30 31 31 28 24 23 22 19 15 13 13 13 13 14 14 15 18 18 18 19 18 19 23 27 29 30 31 31 31 31 32 33 32 31
27 26 22 20 20 20 21 22 22 23 24 26 28 29 29 29 29 29 30 29 30 32 34 34 34 33 33 33 33 33 32 32 31 30 29 28 27 27 26 25 24 24 24 24 24 24 25 25 27 27 27 29 30 29 27 23 22 21 18 13 11 11 12 12 13 14 15 17 18 17 17 18 19 20 23 27 30 31 30 30 31 32 32 32 31
28 27 25 23 23 23 24 24 24 24 24 25 26 28 29 29 29 30 30 31 32 34 35 35 34 34 34 33 33 33 33 32 31 30 30 29 28 27 26 25 24 23 23 23 23 23 24 25 26 26 26 27 28 28 26 22 20 20 17 12 9 9 11 12 13 14 15 16 17 17 17 18 20 21 22 24 27 29 29 30 30 31 32 32 31
29 29 28 27 26 26 27 27 26 25 25 26 25 26 28 29 30 31 31 32 34 35 36 35 34 34 34 34 33 33 33 32 31 30 30 29 28 26 26 24 23 22 22 22 22 23 24 24 25 25 25 25 26 26 25 22 19 17 15 10 8 9 11 12 13 14 15 16 16 17 18 19 20 21 22 23 25 27 28 29 30 31 32 31 31
32 31 31 30 29 28 29 29 27 26 26 26 25 26 28 30 31 31 33 34 35 36 36 35 34 34 34 34 34 33 33 32 30 30 30 28 27 26 25 23 22 21 21 21 22 22 23 24 24 25 24 24 24 25 25 22 19 16 14 12 12 14 15 14 14 16 17 17 17 18 18 19 21 22 23 23 24 26 27 28 29 31 32 32 32
35 34 33 33 32 31 31 29 27 27 27 27 26 27 29 31 32 32 34 35 36 36 35 34 34 35 35 34 34 33 32 31 30 30 29 28 26 25 24 23 22 22 22 21 21 22 22 23 23 23 23 23 23 23 24 23 20 17 16 17 18 18 17 16 15 16 17 17 18 18 18 19 21 23 23 24 24 25 26 27 28 30 32 32 32
36 36 35 34 33 33 32 30 29 28 29 29 28 28 30 32 33 34 35 35 36 35 34 34 35 36 36 35 34 33 32 31 30 30 29 27 26 25 24 23 22 22 21 21 21 21 21 22 22 22 22 22 22 22 22 23 21 19 17 19 20 20 19 18 16 16 17 17 18 19 19 19 20 22 23 23 22 22 24 26 27 28 29 30 30
35 35 34 33 34 34 33 32 32 31 31 32 30 29 31 33 34 35 35 35 36 35 34 35 36 37 36 35 33 32 31 30 30 29 28 27 26 25 24 22 21 21 20 20 20 20 20 21 21 22 22 21 21 21 21 22 22 21 19 18 19 20 19 19 17 17 17 17 18 19 19 19 20 22 23 23 23 23 24 26 27 27 28 30 31
37 37 37 36 36 36 35 35 34 33 32 32 31 30 32 34 35 36 36 36 36 35 35 36 37 37 36 34 32 31 30 30 29 28 27 26 25 24 23 21 21 20 19 19 19 19 19 20 20 21 21 21 21 21 21 21 22 22 21 19 17 18 19 18 18 18 18 18 18 18 18 19 21 23 23 24 25 25 25 26 26 28 29 30 31
42 40 39 37 37 38 37 36 36 35 34 33 32 32 33 35 37 37 37 37 36 36 36 36 37 36 36 34 32 31 30 29 28 27 26 26 25 24 22 21 20 19 18 18 19 19 19 19 19 19 19 20 20 21 21 21 22 22 20 18 16 16 18 19 18 18 18 19 18 18 18 19 20 21 22 23 24 25 26 27 27 29 30 30 31
42 41 39 38 39 40 39 38 39 37 35 34 33 33 35 37 38 38 38 37 37 36 36 36 36 36 35 33 32 31 30 28 27 26 25 25 24 23 22 21 19 18 18 18 18 19 18 18 18 18 18 19 20 20 21 21 21 20 18 17 16 16 17 18 19 20 19 19 19 18 18 18 19 19 21 22 23 24 26 27 28 29 30 31 31
38 38 38 39 41 41 40 40 40 37 34 34 33 34 36 38 39 39 38 38 37 37 37 36 36 35 33 32 31 30 29 28 27 25 24 24 23 22 21 20 19 18 18 18 19 19 18 18 17 17 17 18 19 20 20 20 20 19 18 17 16 16 16 18 19 21 21 21 20 20 19 19 19 20 21 22 23 24 25 27 27 28 29 30 30
36 35 36 37 38 39 39 38 36 34 33 33 34 36 38 39 39 39 38 38 38 38 37 36 35 33 32 31 30 30 29 27 26 25 24 23 22 21 20 20 19 19 19 19 19 19 19 18 17 17 17 17 18 19 20 20 19 20 19 18 16 16 16 17 18 20 21 22 22 21 21 21 21 21 21 21 21 22 24 25 26 27 29 30 30
35 34 34 35 35 36 37 36 33 33 34 34 35 37 38 39 38 38 38 38 38 38 37 35 34 32 31 30 29 28 28 26 25 24 23 22 21 20 20 20 20 20 20 20 19 19 19 19 18 18 18 18 18 19 20 20 20 21 20 18 16 16 17 17 18 18 19 20 20 20 20 20 20 20 21 21 21 22 23 23 25 26 28 29 30
34 34 34 34 34 35 35 34 33 33 34 34 35 36 37 38 38 38 38 38 38 37 36 35 33 31 30 28 27 27 26 26 25 24 24 23 22 21 21 21 21 21 21 21 20 19 19 19 19 19 18 18 19 20 21 21 20 20 19 17 17 18 18 18 18 17 16 17 19 20 19 19 19 19 19 20 21 22 23 24 24 25 26 28 29
34 36 37 36 34 33 34 33 33 33 33 33 35 36 37 37 37 37 37 37 37 36 35 34 32 30 29 28 26 26 25 25 25 25 24 23 23 22 22 22 22 22 22 22 21 20 19 20 20 20 19 19 19 20 21 21 20 19 18 18 18 18 17 17 16 15 15 16 17 19 19 19 19 18 19 20 21 21 22 22 22 23 25 25 26
37 37 37 37 35 34 34 33 32 32 32 33 34 35 36 36 36 36 36 36 36 35 34 33 31 29 28 27 26 26 25 25 25 25 24 24 23 23 22 22 22 22 21 21 21 20 20 20 20 20 20 19 19 19 20 20 20 20 19 19 19 18 17 16 15 15 16 17 17 17 17 17 18 18 18 19 20 19 19 20 21 23 24 24 23
39 39 36 35 34 32 32 31 31 31 32 33 34 35 35 35 35 35 35 35 34 33 33 32 30 28 28 27 27 27 27 26 26 25 25 24 23 23 21 21 20 20 20 20 20 21 21 21 21 21 20 20 19 19 19 20 20 19 19 19 19 18 17 16 15 15 16 17 18 18 17 16 17 17 18 18 19 19 19 19 21 22 22 21 22
33 37 35 32 29 27 27 29 31 32 33 33 34 34 34 34 34 34 34 33 32 31 31 30 29 29 28 28 28 28 28 27 26 25 25 24 23 22 20 20 19 19 19 19 20 20 21 22 21 21 20 19 18 19 19 19 19 19 19 18 18 18 18 17 17 16 15 15 17 18 18 18 18 19 19 19 19 20 20 21 21 20 19 18 20
27 32 34 31 29 28 28 29 30 31 32 32 33 33 33 33 32 32 31 30 30 29 29 29 29 29 30 29 29 28 28 27 25 25 24 24 23 22 21 20 20 19 19 20 20 20 21 21 21 20 19 18 18 18 18 18 18 18 19 19 18 18 18 18 18 18 17 16 16 17 18 19 19 19 20 20 19 18 19 20 20 20 20 20 20
27 28 31 30 30 30 30 29 30 30 30 31 31 31 31 30 29 29 29 28 28 29 29 30 30 30 30 29 28 27 26 25 25 24 24 23 23 22 22 22 22 22 22 22 22 22 21 21 20 19 18 18 18 18 18 18 18 18 19 19 19 19 19 18 18 18 19 18 18 17 16 17 17 15 16 17 17 16 17 17 18 19 21 23 23
28 28 29 30 30 30 30 30 29 29 28 29 29 29 28 28 27 27 28 28 28 29 29 30 30 29 28 27 26 25 24 24 24 24 24 23 23 23 23 23 23 23 23 24 23 23 23 22 21 20 20 19 19 19 20 20 20 20 20 20 20 20 20 19 19 19 19 19 19 19 18 18 17 16 14 15 16 17 17 18 19 20 21 23 24
29 29 30 30 30 30 30 29 28 27 27 27 27 27 27 27 27 27 28 28 29 29 29 28 28 27 27 26 25 24 23 23 24 24 24 24 24 24 24 24 25 26 25 25 24 24 23 23 22 22 21 21 21 21 21 21 22 22 21 21 21 21 21 20 20 20 20 20 20 21 21 20 20 18 16 15 16 17 17 18 19 21 22 23 24
31 30 30 30 31 30 29 28 27 27 27 27 27 27 27 27 27 27 27 28 28 28 28 28 27 27 26 25 24 23 23 23 24 24 24 24 24 25 25 26 27 26 25 23 21 21 21 21 22 22 22 23 23 22 22 22 22 23 23 22 22 22 22 22 21 21 21 21 21 21 21 21 21 20 18 17 18 19 19 19 20 21 21 23 24
29 29 29 30 30 29 28 27 27 27 27 27 27 27 27 26 26 26 27 27 27 28 28 27 27 26 26 25 24 24 24 23 23 24 24 24 25 25 26 25 23 21 19 18 17 17 17 18 19 20 20 21 21 21 21 21 22 22 23 23 22 22 22 22 22 21 21 22 22 21 21 22 22 22 22 21 22 22 23 24 25 25 24 23 24
28 29 29 29 29 28 27 26 26 26 26 26 27 26 26 26 26 26 26 27 27 28 27 26 26 25 25 25 25 24 23 23 23 23 23 23 23 23 22 20 18 17 16 16 16 16 17 17 17 18 18 19 19 20 20 20 21 21 22 22 23 23 23 23 24 23 23 23 23 23 23 22 22 23 24 24 25 26 27 27 28 28 28 28 27
28 29 29 28 28 27 26 26 26 26 26 26 26 26 26 26 26 26 27 27 26 25 24 24 24 24 24 24 24 23 22 22 22 22 21 21 21 21 19 18 17 17 17 17 18 18 18 18 19 19 19 20 20 21 21 22 22 22 22 23 23 24 25 25 26 26 26 26 25 25 25 25 25 25 25 26 26 27 28 29 30 30 31 32 32
29 29 29 28 28 27 27 27 26 26 26 26 26 26 26 26 27 27 26 25 24 23 23 23 23 23 23 23 23 23 22 22 22 22 21 21 20 19 18 18 18 18 19 19 19 20 20 20 21 21 21 22 22 22 23 23 24 24 25 25 25 25 26 26 27 27 28 28 28 28 28 28 28 28 29 29 30 30 31 32 32 33 33 34 36
30 30 29 28 28 27 27 27 27 26 26 26 27 27 27 27 27 25 24 23 23 23 23 22 22 22 22 22 22 22 22 21 21 20 20 19 19 19 19 19 19 19 19 20 20 20 21 21 22 22 23 23 23 24 24 25 25 26 27 27 27 27 27 28 28 29 30 30 31 31 31 31 31 31 31 32 33 34 34 35 35 36 37 37 38
30 29 29 28 27 27 27 27 27 26 26 27 26 26 26 25 24 23 22 22 23 22 22 21 21 21 20 20 20 20 20 19 19 19 19 20 20 20 20 20 20 20 20 20 21 21 22 22 23 23 24 24 25 25 25 26 27 27 28 28 29 29 29 29 30 30 31 32 33 33 33 33 33 32 32 33 34 35 36 37 38 39 39 40 41
29 28 28 27 27 27 27 27 26 25 25 25 25 24 23 23 22 22 22 23 23 22 22 21 19 18 17 17 17 18 18 19 19 20 20 20 20 21 21 20 20 21 21 22 22 23 23 24 24 25 25 25 26 26 26 27 27 28 28 29 29 29 30 30 30 30 31 31 32 32 32 32 32 32 31 31 31 32 34 35 37 38 39 40 41
28 27 27 27 27 27 26 25 24 24 24 24 23 22 22 23 23 23 23 23 23 22 21 19 17 16 15 15 16 17 17 18 19 20 20 20 20 21 21 21 21 22 23 23 24 25 25 25 26 26 26 26 26 26 26 26 26 26 26 27 27 27 27 26 26 26 27 27 27 27 28 27 27 27 27 27 27 27 27 28 29 30 32 33 34
Wind_Direction
240 240 238 236 235 237 238 240 242 245 249 253 256 255 252 252 251 248 247 248 249 248 248 251 256 260 263 267 272 277 280 280 277 274 273 273 273 275 279 284 289 294 297 300 305 313 317 319 322 323 324 324 322 319 318 319 318 312 303 297 295 292 286 280 278 276 277 275 268 263 254 247 248 244 238 234 233 238 249 255 254 254 254 253 253
237 235 232 229 229 232 235 237 239 242 247 252 256 256 254 253 251 250 248 248 248 248 250 254 258 261 265 270 275 279 281 281 278 275 273 274 275 276 280 285 289 292 295 301 308 316 319 318 318 318 319 318 317 315 312 311 311 309 304 299 295 292 286 278 274 272 273 276 274 268 259 248 244 241 239 237 237 240 245 248 250 252 253 251 251
230 230 228 226 226 230 234 236 238 240 246 250 254 255 254 253 251 249 248 248 249 251 255 258 261 264 268 272 277 280 283 284 281 279 277 276 277 278 282 286 290 294 299 305 309 313 316 316 316 317 317 316 314 312 309 308 308 305 301 298 296 293 288 280 273 270 270 271 272 269 261 252 244 239 238 240 240 240 240 242 246 249 249 247 248
227 228 227 226 227 230 233 235 238 241 244 247 249 251 251 251 249 247 247 249 252 255 259 262 264 268 272 275 278 281 285 287 285 282 280 279 279 280 283 287 292 296 301 307 309 311 314 315 316 317 316 314 313 311 308 306 305 303 298 295 293 292 289 282 273 268 267 266 268 268 261 254 248 241 238 239 240 241 240 240 243 244 242 241 243
220 224 225 226 228 232 235 236 239 241 242 243 245 248 249 248 247 247 248 251 255 259 262 265 269 272 275 276 278 282 287 289 287 284 282 282 281 281 283 286 291 297 302 307 310 313 315 316 316 316 315 315 312 310 307 305 303 300 296 292 288 287 286 281 272 265 262 260 263 266 259 253 248 239 238 241 242 242 240 239 241 241 239 238 240
209 214 219 224 228 231 234 236 240 242 241 242 245 247 248 248 248 249 250 253 257 261 265 268 271 273 274 276 280 285 289 291 289 286 285 284 282 282 283 286 291 297 302 307 311 315 316 316 317 317 316 314 311 307 305 304 304 301 296 291 284 281 281 278 271 264 259 257 259 262 258 252 243 236 238 242 244 243 240 239 240 239 237 237 239
205 212 222 228 231 232 232 234 239 241 240 242 246 249 250 250 251 251 251 253 257 262 266 269 271 273 276 279 283 287 289 291 290 288 287 286 285 284 285 288 293 299 304 308 313 316 317 318 319 319 317 314 310 306 304 303 303 301 297 292 285 280 277 276 272 266 260 258 258 257 253 248 241 238 240 241 244 244 238 235 236 237 238 238 239
211 216 224 229 231 229 229 231 235 238 239 240 244 249 251 251 251 250 251 253 258 262 265 268 272 275 279 282 284 288 291 293 292 291 289 287 286 285 287 290 295 301 306 310 315 317 318 319 320 319 318 315 312 309 308 306 304 301 297 292 286 281 277 273 271 267 261 257 258 255 250 246 242 239 240 242 244 241 234 231 233 234 236 238 240
215 213 223 235 234 230 229 231 231 233 235 236 239 245 249 252 251 250 251 254 258 262 265 268 272 276 279 282 286 290 293 294 294 292 289 287 286 286 288 291 296 301 306 311 315 317 317 318 319 319 317 315 313 311 310 309 307 303 298 293 287 282 276 271 268 267 261 256 257 256 250 248 243 237 239 243 243 238 230 228 230 231 231 234 238
218 227 243 241 234 231 230 229 228 228 229 232 236 243 248 252 252 250 251 255 260 264 267 270 273 276 279 283 286 289 292 293 293 291 289 286 285 285 287 291 296 302 307 311 314 316 316 317 318 318 317 314 312 311 310 309 307 303 299 295 290 282 275 269 264 264 261 255 256 256 250 246 241 236 239 244 243 238 231 228 229 230 228 230 233
238 254 251 244 246 246 242 236 230 225 226 231 237 243 248 251 250 250 252 257 262 266 270 272 274 276 279 282 284 287 290 292 293 292 290 288 286 285 286 291 297 302 307 311 313 315 315 316 317 318 316 313 311 310 310 309 306 302 298 294 290 281 274 269 263 259 257 252 254 256 253 248 242 235 235 239 240 238 233 229 228 228 227 228 231
258 261 253 257 269 269 260 254 246 231 226 233 240 244 248 250 251 252 255 260 265 269 271 272 274 276 279 281 284 287 290 294 296 296 294 293 291 290 290 293 298 303 307 310 312 314 316 317 318 318 316 313 312 311 310 308 305 301 297 293 288 280 272 269 264 258 254 251 253 255 254 251 245 235 230 232 236 235 231 228 226 226 226 227 230
259 257 254 268 282 278 271 274 270 244 230 236 242 245 248 251 254 256 260 265 269 271 272 272 275 278 280 282 285 288 292 295 298 299 298 297 295 293 293 294 298 303 307 309 312 315 317 319 320 319 317 316 315 313 310 307 303 299 295 290 286 279 269 266 262 255 253 252 252 254 255 255 247 236 228 228 232 232 229 227 226 226 228 229 230
248 246 250 267 280 275 271 271 263 242 234 241 244 246 250 253 256 259 262 267 271 271 272 274 275 277 279 281 283 286 291 296 299 300 299 298 296 295 294 296 300 304 307 309 313 317 319 320 320 320 319 319 317 314 311 307 302 298 294 288 283 275 266 264 260 255 254 254 254 255 257 258 245 233 229 228 230 228 226 226 225 225 227 230 230
242 240 246 261 270 264 257 255 253 247 246 247 248 250 253 255 257 260 264 268 270 271 272 273 274 276 278 279 281 285 291 296 299 300 300 299 298 297 297 299 303 306 308 311 314 318 319 320 321 321 321 321 318 315 312 308 303 300 296 288 280 270 262 261 260 258 257 256 257 257 260 259 242 228 229 231 228 225 223 224 223 223 226 229 231
241 239 243 257 266 265 257 252 252 254 253 252 252 252 254 256 257 260 264 267 268 269 270 271 273 275 277 278 280 286 293 298 301 302 301 300 299 299 299 301 304 307 310 312 315 318 320 321 322 322 323 323 320 318 315 310 306 304 298 289 280 270 263 260 257 256 255 255 258 260 264 262 240 223 225 227 224 221 221 222 223 224 227 230 232
241 238 240 252 263 269 269 260 253 253 253 252 252 252 252 255 257 260 263 265 265 266 268 270 272 273 275 277 281 287 293 298 302 302 301 300 298 298 299 301 305 308 310 313 316 319 321 323 323 322 323 324 323 321 317 313 309 306 299 289 281 272 264 259 255 253 253 255 259 262 266 258 232 219 222 222 219 219 221 223 224 226 227 230 231
238 236 238 250 262 268 272 266 256 255 255 253 252 251 250 253 258 261 262 263 265 267 269 271 272 273 275 278 282 287 293 297 301 302 301 300 298 297 299 302 305 306 309 314 317 320 321 323 322 321 322 325 326 324 321 316 312 308 300 291 283 273 263 257 253 252 252 255 260 265 269 256 227 217 221 222 219 220 222 223 225 226 228 229 230
235 235 238 247 257 264 271 270 260 257 259 258 255 253 252 254 258 261 262 264 267 269 271 272 272 274 276 279 283 286 291 295 298 301 302 301 299 299 300 302 304 306 310 314 317 319 321 323 322 321 323 327 328 327 325 320 315 311 302 293 286 275 264 255 251 253 254 256 262 267 269 260 233 220 222 224 223 223 225 226 227 229 230 230 229
234 235 240 245 251 259 269 272 266 261 261 260 257 255 255 256 258 260 262 265 267 269 270 271 272 274 276 279 282 285 289 293 298 302 304 302 300 300 300 301 304 307 311 314 317 320 321 322 322 322 324 328 330 330 329 324 318 314 304 295 289 276 263 253 249 253 255 256 263 268 267 262 246 229 223 224 226 226 226 227 229 232 233 231 230
234 236 241 245 249 256 266 270 268 263 260 259 259 259 259 259 258 258 260 263 265 267 269 271 273 275 276 279 281 285 289 293 298 302 303 302 299 299 300 301 304 308 311 314 316 319 320 322 323 322 325 330 332 332 332 326 320 316 306 295 289 276 263 255 249 249 253 254 258 265 267 261 254 244 231 224 225 227 227 228 230 233 235 234 232
237 241 246 249 251 256 264 268 267 263 260 259 260 260 261 259 256 256 258 261 263 266 268 270 272 274 277 280 283 286 289 292 297 301 303 301 299 298 299 301 305 308 310 313 315 317 319 321 323 323 326 330 332 333 334 328 322 317 307 296 292 283 270 262 256 252 252 253 254 260 267 265 256 250 242 233 230 230 230 231 233 235 237 237 235
241 245 249 252 252 255 261 265 265 263 260 261 261 260 258 256 253 254 256 259 262 265 267 269 273 275 278 281 284 286 289 292 297 301 303 302 300 299 300 301 304 306 308 311 314 316 319 321 324 324 326 329 331 334 334 330 322 315 306 296 294 296 287 276 267 261 257 255 257 261 266 267 259 250 247 243 239 237 234 233 234 236 238 239 237
242 245 248 250 250 253 258 262 262 260 259 261 261 258 255 253 251 253 255 259 261 264 267 270 274 277 280 283 285 287 289 292 296 300 303 302 300 299 299 300 302 304 307 310 313 316 320 322 324 325 325 326 329 333 334 331 323 312 299 290 292 297 296 287 273 265 263 260 259 260 261 260 255 249 245 244 244 242 239 236 236 237 239 239 238
242 244 246 247 247 251 256 259 259 258 258 259 259 257 254 251 251 252 255 258 261 264 268 272 275 278 281 285 287 288 289 291 296 301 303 302 300 298 298 299 301 303 307 311 314 317 320 322 324 324 323 323 325 329 332 331 326 313 295 287 287 288 290 288 275 264 263 262 259 258 255 252 250 247 245 244 244 244 241 239 240 241 241 239 239
241 243 245 245 246 250 253 254 256 260 261 258 256 255 253 251 252 253 255 259 262 265 269 272 275 278 282 286 288 289 290 292 297 302 303 301 299 297 297 298 300 304 308 311 314 317 320 321 322 322 321 320 322 325 327 329 328 319 304 292 288 286 284 284 276 265 263 261 258 257 255 252 250 248 247 246 245 242 239 239 240 241 239 237 237
240 243 246 248 249 250 250 250 254 260 261 258 255 254 253 252 253 254 257 260 263 266 269 272 275 278 283 287 289 290 291 295 299 302 302 300 298 296 297 298 300 304 307 310 313 315 317 319 320 320 319 318 319 321 322 325 326 322 313 302 293 289 285 281 274 268 267 265 261 258 254 249 247 247 247 246 243 239 238 239 240 242 242 241 242
244 247 250 252 252 251 252 253 255 258 259 256 256 255 253 252 253 254 257 260 263 267 270 273 276 279 284 288 290 291 293 296 300 302 301 299 297 296 296 298 300 302 305 308 311 312 314 316 318 318 318 317 317 318 320 321 322 322 319 309 297 289 284 280 275 269 267 266 264 260 256 251 248 248 248 247 245 241 240 241 243 244 246 247 248
248 249 251 252 253 254 256 257 259 259 257 255 256 256 253 251 252 254 257 260 264 267 270 273 277 280 284 288 291 292 294 297 300 301 299 297 296 295 295 296 298 300 304 306 308 310 311 314 315 316 316 316 317 318 321 322 321 321 320 313 301 290 283 278 274 269 266 266 266 264 261 257 253 250 248 248 248 245 243 244 245 246 247 249 250
249 249 250 250 252 255 257 258 260 260 256 254 256 255 252 250 251 254 257 260 264 267 271 274 278 281 286 289 292 294 296 298 299 298 297 295 294 294 294 296 298 300 303 306 307 308 308 309 310 312 314 316 318 321 324 327 325 323 322 316 303 293 287 280 274 271 266 264 265 264 262 259 256 253 251 250 250 250 248 247 247 249 250 250 252
247 247 248 249 251 253 255 256 258 258 254 252 253 252 249 249 251 254 257 261 265 268 271 275 278 283 288 291 293 295 297 298 298 297 296 295 294 294 295 296 298 300 303 305 306 305 303 303 304 307 311 315 319 322 325 330 329 324 321 318 309 297 290 284 277 273 268 265 265 264 261 259 256 254 254 254 253 254 253 251 250 251 252 251 251
243 244 246 247 249 251 252 254 254 251 248 248 249 248 247 248 250 254 258 262 265 268 272 276 280 285 289 292 295 296 297 296 296 295 295 294 295 295 296 296 297 298 301 302 303 301 300 300 300 301 306 312 317 319 322 326 328 323 317 316 315 309 299 290 281 274 270 268 267 266 264 261 258 255 255 256 256 257 257 255 253 252 252 251 251
239 240 241 243 245 247 249 251 249 245 243 245 246 246 247 249 251 255 259 262 266 269 273 278 281 285 289 294 296 296 296 295 294 293 293 293 294 294 295 295 295 297 299 299 300 298 297 296 296 297 301 307 312 314 317 321 324 324 318 313 315 318 313 304 291 279 273 271 270 268 265 262 260 258 257 257 257 257 259 259 258 256 255 254 252
237 237 238 240 243 246 247 247 244 241 241 243 245 247 248 250 252 256 259 263 267 271 275 279 282 286 291 294 294 293 293 293 292 292 291 291 291 291 292 293 294 296 297 297 297 295 293 293 293 293 296 302 307 310 313 315 318 321 317 311 312 316 319 315 304 289 279 275 271 268 264 261 261 260 260 259 257 256 256 257 258 256 256 257 253
238 239 240 242 245 246 245 242 239 238 238 241 243 246 249 251 254 257 260 265 269 273 276 279 283 289 292 293 292 291 291 290 290 290 290 289 289 289 290 292 294 295 296 296 295 293 291 291 292 293 293 296 301 306 309 310 311 313 310 307 309 314 317 319 314 300 287 281 277 274 270 266 263 262 262 262 260 259 257 255 256 257 257 256 252
240 240 241 244 245 245 243 238 235 235 236 239 243 246 249 252 255 258 262 266 270 273 276 280 285 290 291 291 291 290 289 289 289 288 289 289 289 289 290 292 294 296 296 295 294 292 291 291 292 293 294 294 297 300 303 304 305 307 306 304 307 311 314 315 314 307 297 290 285 282 279 274 269 265 264 262 261 260 258 257 257 257 258 255 250
240 239 241 243 242 240 237 233 232 233 236 239 243 246 249 253 256 260 264 267 270 274 278 282 287 289 289 289 289 289 288 288 288 288 288 288 288 289 290 291 294 296 296 295 293 291 290 291 292 293 294 294 295 296 296 298 300 302 303 302 304 308 310 311 309 307 302 294 287 283 283 283 277 269 263 260 257 255 254 256 256 255 257 257 252
246 237 237 240 238 235 233 232 232 235 238 241 244 247 251 255 258 261 265 268 272 276 281 285 287 287 287 288 288 288 288 287 287 287 287 287 287 287 288 290 292 295 296 296 294 292 291 292 293 294 294 295 296 296 295 295 297 299 301 301 302 303 306 308 307 304 301 296 290 283 281 280 278 273 266 261 259 257 255 254 252 251 253 256 251
255 240 234 236 237 237 237 235 235 237 240 243 246 249 252 256 259 262 266 270 275 278 281 284 285 286 287 287 287 287 286 286 286 285 285 285 285 285 286 288 289 291 293 295 296 295 293 293 293 293 295 297 299 299 298 298 298 299 300 300 300 301 302 304 306 303 300 298 295 290 285 282 277 269 261 256 256 257 255 253 251 249 249 250 248
255 243 234 234 238 239 238 237 238 239 241 244 247 250 253 257 261 265 269 273 275 278 280 282 284 285 285 285 285 284 284 284 284 283 282 282 283 285 286 287 288 289 289 290 293 295 295 293 290 289 292 297 301 302 302 302 301 301 300 300 300 300 299 299 301 301 301 298 296 295 295 292 286 275 263 257 255 257 258 257 257 256 252 249 248
248 240 232 232 234 235 236 237 238 240 242 246 249 253 256 260 264 267 270 272 275 277 280 281 282 283 283 283 282 281 282 283 283 282 281 281 283 285 288 289 290 289 289 289 289 290 292 291 289 287 287 291 296 299 300 300 300 299 299 299 298 298 297 297 297 298 299 298 297 295 294 292 292 293 289 280 270 264 262 264 264 262 257 253 251
241 234 229 230 232 234 236 238 240 242 246 249 252 256 259 261 264 267 270 273 275 277 279 281 281 282 281 279 279 280 282 284 284 282 281 281 283 286 288 291 291 291 291 290 289 287 287 286 286 285 285 287 289 291 292 293 294 294 294 294 294 294 293 293 294 294 295 296 296 296 295 293 293 294 294 291 282 270 261 260 261 258 254 252 251
232 230 230 231 233 236 238 240 243 245 248 251 254 257 259 262 265 268 270 272 274 277 279 281 281 280 279 277 277 280 284 287 286 284 282 281 283 286 289 291 293 293 293 291 289 287 285 284 283 283 284 285 286 286 286 285 286 287 288 288 289 289 290 290 290 290 290 290 291 291 292 292 292 291 288 285 281 272 264 264 267 267 262 257 254
227 229 231 233 235 237 239 241 243 246 249 252 255 258 261 264 267 268 270 273 276 279 281 282 281 279 277 276 277 281 286 288 287 285 283 283 284 287 290 292 292 292 292 291 291 289 287 286 285 285 285 285 286 285 284 284 283 283 284 285 285 286 286 286 286 286 285 285 286 286 286 286 287 287 286 283 279 275 272 273 275 276 274 270 265
227 230 232 233 234 236 238 241 244 247 251 254 257 260 263 265 267 269 272 277 280 282 282 282 280 279 277 277 278 280 284 287 287 285 284 285 286 289 290 290 288 287 288 290 290 290 289 288 287 287 287 287 287 287 286 285 285 284 284 285 286 286 286 286 286 286 284 283 282 281 281 281 280 280 280 280 279 278 277 276 275 275 275 274 272
227 229 231 233 234 237 240 243 246 249 252 255 258 260 262 264 267 270 275 278 280 280 280 280 280 279 279 278 278 279 282 285 286 286 286 286 288 289 287 285 282 283 285 287 289 289 288 288 287 286 286 286 286 286 286 286 285 285 284 284 284 285 286 286 287 287 286 285 283 281 279 279 278 278 277 276 276 276 276 276 276 275 275 274 273
226 229 231 234 237 240 243 246 248 251 254 256 258 260 262 265 268 271 273 275 276 277 279 280 281 281 281 280 279 279 280 282 283 284 285 285 285 284 282 280 279 281 284 285 286 287 287 287 286 286 285 285 284 284 284 284 284 284 284 284 284 284 284 285 285 285 285 285 285 283 282 279 277 277 276 276 275 274 274 274 274 274 274 274 274
227 230 233 237 240 243 246 248 251 253 256 257 260 262 264 266 268 269 270 271 273 277 280 282 283 284 283 281 280 279 278 279 280 280 280 280 279 278 278 279 280 282 283 284 286 287 288 288 289 288 288 288 287 286 286 285 285 285 285 285 285 285 285 284 284 284 285 285 285 285 285 283 281 278 276 275 275 275 275 275 274 275 275 275 275
230 233 236 239 242 244 247 250 253 255 257 259 261 263 265 266 266 266 268 271 273 276 278 281 282 281 279 277 276 276 276 276 276 277 276 277 278 279 279 280 281 282 283 285 287 288 289 290 290 290 290 289 289 288 288 286 286 285 284 284 284 284 283 283 282 282 282 283 283 283 284 284 283 282 279 277 276 275 275 276 276 277 277 278 278
232 234 237 240 243 245 249 251 253 255 257 259 261 263 264 263 263 265 269 271 272 273 275 277 277 275 274 273 273 274 274 274 274 275 276 277 278 279 279 280 281 282 284 285 287 288 289 289 290 289 289 289 288 288 287 286 285 283 283 282 282 282 282 282 282 282 281 281 282 283 284 284 285 285 285 283 282 280 278 278 278 278 279 280 280
231 234 238 241 244 247 250 252 254 257 258 260 262 262 262 262 263 266 268 269 271 272 273 273 270 269 270 274 276 277 277 277 277 277 277 277 278 279 280 280 281 282 283 285 286 287 288 289 290 290 290 290 290 290 289 287 286 284 283 283 283 284 284 285 285 285 285 285 285 286 287 288 289 290 291 292 292 291 290 288 287 286 285 286 286
Height
5801 5802 5804 5805 5806 5807 5808 5809 5810 5811 5812 5813 5814 5815 5816 5817 5818 5819 5819 5820 5821 5822 5822 5823 5823 5823 5822 5822 5822 5821 5820 5819 5818 5817 5817 5817 5817 5817 5817 5816 5815 5814 5812 5811 5811 5811 5811 5810 5808 5807 5805 5804 5802 5801 5799 5798 5797 5796 5794 5792 5792 5791 5791 5790 5790 5789 5789 5789 5789 5789 5789 5789 5790 5790 5791 5791 5792 5793 5794 5795 5795 5796 5797 5797 5798
5799 5800 5802 5803 5804 5805 5806 5807 5808 5809 5810 5811 5812 5813 5814 5815 5816 5817 5818 5818 5819 5820 5820 5821 5821 5821 5821 5820 5820 5819 5818 5817 5816 5816 5815 5815 5816 5816 5815 5814 5812 5811 5809 5809 5809 5809 5808 5807 5806 5805 5804 5802 5801 5799 5797 5795 5795 5793 5792 5790 5789 5789 5788 5787 5787 5786 5786 5786 5786 5786 5786 5787 5787 5787 5788 5789 5790 5790 5792 5793 5793 5794 5794 5795 5797
5797 5799 5800 5801 5802 5803 5804 5805 5806 5807 5808 5809 5810 5811 5812 5813 5814 5815 5816 5817 5817 5818 5819 5819 5819 5819 5819 5819 5818 5817 5816 5815 5814 5814 5814 5814 5814 5814 5813 5811 5810 5808 5807 5807 5807 5806 5806 5804 5804 5803 5802 5800 5799 5797 5795 5793 5792 5791 5789 5788 5787 5786 5785 5784 5784 5783 5783 5783 5783 5782 5783 5783 5784 5784 5785 5786 5786 5787 5789 5790 5791 5792 5792 5793 5794
5796 5798 5799 5800 5801 5802 5802 5804 5805 5806 5806 5807 5808 5809 5810 5812 5813 5814 5814 5815 5815 5816 5817 5817 5817 5817 5817 5817 5816 5815 5814 5813 5812 5811 5811 5812 5812 5811 5810 5809 5807 5806 5805 5805 5804 5804 5803 5802 5801 5800 5799 5798 5796 5795 5793 5791 5789 5787 5786 5785 5784 5783 5782 5781 5780 5780 5779 5779 5779 5779 5779 5780 5780 5782 5782 5781 5782 5784 5786 5787 5788 5790 5791 5791 5792
5795 5796 5798 5799 5800 5801 5801 5802 5803 5804 5804 5805 5806 5807 5809 5810 5811 5812 5813 5813 5814 5814 5815 5815 5815 5815 5815 5815 5814 5813 5812 5811 5810 5809 5809 5809 5809 5809 5809 5807 5806 5804 5803 5803 5802 5801 5800 5799 5798 5797 5796 5795 5793 5791 5789 5787 5786 5784 5782 5781 5780 5779 5779 5778 5777 5776 5775 5775 5775 5776 5776 5776 5777 5779 5778 5778 5779 5781 5783 5784 5786 5787 5788 5789 5790
5794 5795 5797 5797 5798 5799 5800 5800 5801 5802 5802 5803 5804 5805 5807 5808 5809 5810 5811 5812 5812 5812 5813 5813 5813 5812 5812 5812 5812 5811 5810 5809 5808 5807 5807 5807 5807 5807 5806 5805 5804 5803 5802 5801 5800 5799 5797 5796 5795 5794 5793 5791 5790 5788 5786 5784 5782 5780 5779 5778 5777 5775 5774 5774 5774 5772 5771 5771 5772 5773 5772 5773 5774 5775 5775 5776 5777 5779 5780 5782 5783 5784 5786 5787 5788
5792 5794 5795 5796 5796 5797 5797 5798 5799 5799 5800 5801 5802 5803 5805 5806 5807 5808 5809 5810 5810 5810 5810 5810 5810 5810 5810 5810 5809 5809 5808 5807 5806 5805 5804 5804 5804 5804 5804 5803 5802 5801 5800 5799 5798 5796 5794 5792 5791 5790 5789 5787 5786 5785 5783 5781 5779 5777 5775 5774 5773 5771 5770 5770 5770 5769 5768 5768 5768 5769 5769 5770 5771 5772 5773 5773 5774 5775 5777 5778 5780 5781 5783 5784 5785
5791 5792 5793 5794 5794 5794 5795 5795 5796 5797 5797 5798 5800 5801 5803 5804 5805 5806 5807 5807 5808 5808 5808 5808 5808 5808 5808 5807 5807 5806 5805 5805 5804 5803 5802 5801 5801 5801 5801 5800 5799 5798 5797 5796 5795 5793 5791 5790 5788 5786 5785 5783 5781 5780 5778 5776 5775 5773 5771 5769 5768 5767 5766 5766 5765 5765 5764 5764 5765 5766 5766 5766 5768 5769 5770 5770 5771 5772 5774 5776 5777 5779 5780 5781 5782
5788 5790 5791 5792 5792 5792 5793 5793 5793 5794 5794 5795 5797 5798 5800 5802 5803 5804 5805 5805 5806 5806 5806 5806 5806 5806 5805 5805 5805 5804 5803 5802 5801 5800 5800 5799 5799 5798 5798 5797 5796 5795 5794 5793 5792 5791 5789 5787 5786 5784 5782 5779 5776 5774 5772 5771 5770 5768 5766 5765 5763 5763 5762 5762 5762 5761 5761 5761 5761 5762 5763 5763 5764 5766 5767 5768 5768 5769 5771 5773 5774 5776 5778 5778 5778
5786 5788 5789 5789 5789 5789 5789 5789 5789 5790 5791 5792 5794 5796 5798 5800 5801 5802 5802 5803 5803 5804 5804 5804 5804 5804 5803 5803 5802 5802 5801 5800 5799 5798 5797 5796 5796 5796 5796 5795 5794 5792 5791 5791 5790 5788 5787 5785 5784 5782 5779 5776 5773 5771 5768 5766 5764 5763 5761 5760 5759 5758 5758 5757 5758 5758 5758 5757 5757 5758 5759 5759 5761 5762 5764 5765 5766 5766 5768 5769 5771 5773 5774 5774 5775
5784 5786 5786 5786 5787 5787 5787 5787 5787 5787 5788 5790 5792 5794 5796 5797 5799 5800 5800 5800 5801 5801 5802 5802 5801 5801 5801 5801 5800 5799 5799 5798 5797 5796 5795 5794 5793 5793 5793 5793 5792 5790 5789 5788 5786 5785 5784 5783 5781 5780 5777 5774 5771 5768 5765 5762 5760 5758 5756 5755 5754 5753 5753 5753 5754 5754 5754 5754 5753 5754 5755 5756 5757 5759 5760 5762 5762 5763 5764 5766 5767 5769 5770 5771 5773
5782 5783 5783 5784 5785 5786 5786 5788 5788 5786 5787 5789 5790 5792 5794 5796 5796 5797 5798 5798 5798 5799 5799 5799 5799 5799 5799 5798 5798 5797 5796 5795 5794 5793 5792 5792 5791 5790 5790 5789 5789 5788 5787 5785 5784 5782 5781 5780 5778 5776 5774 5771 5768 5765 5762 5758 5755 5753 5751 5750 5749 5748 5748 5749 5750 5750 5750 5750 5749 5749 5750 5752 5753 5755 5756 5758 5759 5760 5761 5762 5763 5765 5767 5769 5770
5779 5780 5780 5781 5783 5782 5782 5785 5787 5785 5785 5787 5789 5790 5792 5794 5795 5795 5795 5796 5796 5797 5797 5797 5796 5796 5796 5796 5795 5794 5793 5792 5792 5791 5790 5789 5788 5787 5787 5786 5786 5785 5784 5782 5781 5779 5778 5776 5774 5772 5770 5767 5764 5761 5758 5754 5751 5748 5747 5745 5744 5744 5744 5744 5745 5746 5746 5746 5746 5746 5746 5747 5748 5750 5752 5754 5756 5756 5757 5759 5761 5763 5765 5766 5767
5777 5778 5778 5779 5780 5779 5779 5781 5782 5782 5784 5786 5787 5788 5790 5791 5792 5793 5793 5793 5794 5794 5794 5794 5794 5794 5794 5793 5793 5792 5791 5790 5789 5788 5787 5786 5786 5785 5784 5783 5783 5782 5781 5779 5778 5776 5775 5773 5771 5769 5766 5763 5760 5757 5753 5750 5747 5744 5742 5740 5739 5739 5739 5739 5740 5742 5742 5742 5743 5742 5743 5744 5744 5745 5748 5750 5752 5753 5755 5756 5758 5760 5762 5763 5764
5774 5775 5776 5777 5778 5778 5777 5778 5779 5780 5782 5783 5785 5786 5787 5789 5790 5790 5791 5791 5791 5792 5792 5792 5792 5791 5791 5791 5790 5790 5789 5788 5787 5786 5785 5784 5783 5782 5781 5781 5780 5779 5778 5776 5775 5774 5772 5770 5768 5766 5763 5760 5757 5753 5749 5746 5743 5740 5737 5736 5735 5734 5735 5736 5736 5738 5739 5739 5740 5740 5740 5741 5741 5742 5745 5747 5748 5750 5752 5753 5755 5757 5759 5760 5761
5773 5773 5775 5776 5777 5777 5776 5776 5778 5779 5780 5781 5782 5784 5785 5786 5787 5788 5789 5789 5789 5789 5789 5789 5789 5789 5789 5788 5788 5787 5786 5785 5784 5783 5782 5781 5781 5780 5779 5778 5777 5776 5775 5774 5772 5771 5770 5767 5765 5762 5760 5757 5753 5749 5745 5742 5739 5736 5733 5731 5731 5731 5732 5732 5733 5734 5736 5737 5738 5738 5737 5738 5738 5739 5741 5743 5745 5747 5749 5750 5752 5754 5756 5757 5758
5771 5772 5773 5774 5774 5774 5775 5775 5776 5777 5779 5780 5780 5781 5783 5783 5784 5786 5787 5787 5787 5787 5787 5787 5787 5787 5786 5786 5785 5785 5784 5783 5782 5781 5780 5779 5778 5777 5777 5776 5775 5774 5773 5771 5770 5768 5766 5764 5762 5759 5756 5754 5750 5746 5742 5738 5735 5733 5730 5728 5728 5728 5729 5729 5730 5731 5733 5735 5736 5735 5735 5735 5735 5737 5739 5740 5742 5744 5746 5748 5750 5751 5752 5754 5756
5769 5770 5771 5772 5772 5771 5772 5774 5774 5775 5777 5778 5779 5780 5781 5781 5781 5783 5784 5784 5784 5785 5785 5785 5784 5784 5784 5783 5783 5782 5781 5781 5780 5779 5778 5777 5776 5775 5774 5773 5772 5771 5770 5769 5768 5766 5764 5761 5759 5756 5754 5751 5747 5743 5739 5736 5733 5730 5728 5726 5725 5725 5726 5726 5727 5729 5731 5732 5733 5733 5732 5732 5733 5734 5736 5738 5740 5742 5744 5745 5747 5748 5749 5751 5753
5767 5768 5768 5769 5770 5770 5770 5772 5773 5774 5775 5776 5777 5778 5778 5779 5779 5780 5781 5781 5782 5782 5782 5781 5781 5781 5781 5781 5780 5780 5779 5779 5778 5777 5776 5774 5773 5772 5772 5771 5770 5768 5767 5766 5765 5763 5761 5759 5756 5754 5751 5748 5744 5741 5736 5733 5730 5728 5726 5724 5723 5723 5723 5724 5725 5727 5728 5729 5730 5730 5730 5730 5731 5733 5734 5736 5738 5740 5741 5743 5745 5746 5747 5748 5750
5765 5766 5766 5767 5767 5768 5769 5769 5770 5771 5773 5774 5775 5776 5776 5777 5777 5778 5778 5779 5779 5779 5778 5778 5778 5778 5778 5778 5778 5777 5777 5776 5775 5774 5773 5772 5771 5770 5769 5768 5767 5766 5764 5763 5762 5760 5759 5757 5754 5751 5749 5745 5742 5738 5734 5731 5728 5726 5725 5723 5722 5722 5722 5722 5723 5724 5726 5727 5728 5729 5729 5729 5730 5731 5732 5734 5736 5738 5739 5741 5742 5743 5744 5745 5746
5761 5763 5763 5764 5765 5766 5767 5768 5768 5770 5771 5772 5773 5774 5774 5775 5775 5776 5776 5777 5776 5776 5776 5776 5776 5776 5775 5775 5775 5775 5774 5774 5773 5772 5771 5769 5768 5767 5766 5765 5764 5763 5762 5760 5759 5758 5756 5754 5752 5749 5747 5744 5740 5736 5733 5730 5727 5725 5724 5723 5722 5721 5721 5721 5721 5722 5724 5725 5726 5727 5728 5728 5728 5730 5731 5732 5734 5735 5737 5738 5739 5740 5741 5742 5744
5758 5759 5761 5762 5763 5764 5765 5766 5767 5768 5768 5769 5770 5771 5772 5773 5773 5773 5774 5774 5774 5773 5773 5773 5773 5773 5773 5773 5773 5772 5772 5771 5770 5769 5768 5767 5766 5765 5764 5762 5761 5760 5759 5758 5757 5755 5754 5752 5750 5747 5745 5742 5739 5735 5732 5729 5727 5725 5724 5723 5722 5721 5721 5721 5721 5721 5722 5723 5724 5725 5726 5726 5727 5728 5729 5731 5732 5733 5734 5735 5737 5738 5739 5740 5741
5755 5756 5758 5760 5761 5762 5763 5764 5765 5766 5766 5767 5768 5768 5769 5770 5770 5771 5771 5771 5771 5771 5771 5771 5771 5771 5770 5770 5770 5770 5769 5768 5767 5766 5765 5764 5762 5761 5761 5760 5759 5757 5757 5756 5755 5753 5751 5749 5747 5745 5743 5740 5737 5734 5731 5729 5726 5725 5724 5723 5722 5722 5721 5720 5720 5720 5721 5721 5722 5723 5724 5725 5725 5726 5727 5728 5729 5730 5731 5732 5734 5736 5736 5737 5738
5752 5754 5755 5757 5758 5759 5760 5761 5763 5764 5764 5764 5765 5765 5766 5767 5768 5768 5768 5769 5768 5768 5768 5768 5769 5768 5768 5768 5767 5767 5766 5765 5764 5763 5762 5760 5759 5759 5758 5757 5756 5755 5754 5753 5752 5751 5749 5747 5745 5743 5741 5739 5736 5733 5730 5728 5726 5725 5724 5723 5722 5722 5721 5720 5719 5719 5719 5719 5720 5722 5723 5723 5723 5723 5724 5725 5726 5728 5729 5730 5731 5733 5733 5734 5735
5749 5751 5752 5754 5756 5757 5758 5759 5760 5761 5761 5761 5762 5763 5764 5765 5765 5766 5766 5766 5766 5765 5766 5766 5766 5765 5765 5765 5764 5764 5763 5762 5761 5760 5759 5757 5756 5756 5755 5754 5753 5752 5751 5750 5749 5748 5746 5745 5743 5741 5739 5737 5734 5732 5729 5727 5725 5723 5723 5722 5721 5721 5720 5719 5718 5718 5718 5718 5718 5719 5720 5721 5721 5721 5721 5722 5723 5725 5726 5727 5729 5730 5731 5731 5732
5746 5748 5749 5751 5753 5754 5755 5756 5757 5758 5758 5759 5759 5760 5761 5762 5763 5763 5763 5763 5763 5763 5763 5763 5763 5762 5762 5762 5761 5760 5759 5758 5758 5756 5755 5754 5753 5753 5752 5751 5750 5749 5748 5748 5747 5745 5744 5742 5740 5739 5737 5735 5732 5730 5727 5725 5723 5722 5720 5720 5719 5718 5718 5717 5717 5717 5716 5716 5716 5717 5717 5718 5718 5718 5719 5719 5720 5722 5723 5725 5726 5727 5728 5729 5730
5743 5744 5746 5748 5749 5750 5751 5753 5754 5754 5755 5756 5757 5758 5759 5760 5760 5760 5760 5760 5760 5761 5761 5760 5760 5759 5759 5759 5758 5757 5756 5755 5754 5753 5752 5751 5750 5750 5749 5748 5747 5747 5746 5745 5744 5743 5741 5740 5738 5736 5735 5733 5731 5728 5726 5724 5722 5720 5718 5718 5717 5716 5715 5715 5715 5714 5714 5714 5714 5714 5714 5715 5715 5715 5716 5716 5717 5719 5720 5721 5723 5724 5725 5726 5727
5739 5741 5742 5744 5745 5747 5748 5749 5751 5751 5752 5753 5754 5755 5756 5757 5757 5757 5757 5757 5757 5758 5758 5757 5757 5756 5756 5755 5754 5753 5752 5751 5750 5749 5749 5748 5747 5747 5746 5746 5745 5744 5743 5743 5742 5740 5739 5737 5736 5734 5732 5730 5729 5727 5724 5723 5720 5718 5717 5715 5715 5714 5713 5713 5713 5712 5712 5711 5712 5712 5712 5712 5712 5712 5713 5714 5714 5716 5717 5719 5720 5721 5722 5723 5723
5735 5737 5738 5740 5742 5743 5744 5746 5747 5748 5749 5750 5751 5752 5753 5754 5754 5754 5754 5754 5754 5755 5755 5754 5754 5753 5752 5751 5750 5749 5749 5748 5747 5746 5745 5745 5744 5744 5743 5743 5742 5742 5741 5740 5739 5738 5736 5735 5733 5732 5730 5728 5727 5725 5723 5721 5719 5717 5715 5714 5713 5712 5712 5711 5711 5711 5710 5709 5709 5709 5709 5709 5709 5710 5710 5711 5712 5713 5715 5716 5717 5717 5718 5719 5720
5731 5733 5735 5736 5738 5739 5741 5742 5743 5744 5746 5747 5748 5749 5749 5750 5750 5750 5751 5751 5751 5751 5751 5751 5750 5750 5749 5748 5747 5746 5745 5744 5743 5743 5742 5742 5741 5741 5740 5740 5739 5739 5738 5737 5736 5735 5734 5733 5731 5730 5728 5726 5725 5723 5721 5719 5717 5716 5714 5713 5712 5711 5710 5710 5709 5709 5708 5708 5707 5707 5707 5707 5707 5707 5708 5709 5710 5711 5712 5713 5713 5713 5714 5715 5716
5727 5729 5731 5733 5734 5735 5737 5738 5739 5741 5742 5743 5744 5745 5745 5745 5746 5747 5747 5748 5748 5748 5748 5748 5747 5746 5746 5744 5743 5743 5742 5741 5740 5739 5739 5739 5738 5738 5737 5737 5736 5736 5735 5734 5733 5732 5731 5730 5729 5727 5726 5725 5724 5722 5720 5718 5716 5714 5713 5711 5710 5709 5708 5707 5707 5706 5706 5706 5705 5705 5705 5705 5705 5705 5706 5706 5707 5708 5708 5709 5710 5710 5711 5711 5712
5724 5726 5728 5729 5730 5732 5733 5735 5736 5738 5739 5739 5740 5740 5740 5741 5742 5743 5744 5744 5745 5744 5744 5744 5744 5743 5742 5741 5740 5739 5738 5738 5737 5736 5736 5736 5735 5735 5734 5734 5733 5733 5732 5732 5731 5730 5728 5727 5726 5725 5724 5723 5722 5720 5719 5717 5715 5713 5711 5710 5708 5707 5706 5705 5704 5703 5703 5703 5703 5703 5703 5702 5702 5702 5703 5704 5705 5705 5705 5706 5707 5707 5707 5708 5709
5721 5723 5725 5726 5727 5729 5730 5732 5733 5734 5735 5735 5735 5736 5736 5738 5739 5740 5741 5741 5741 5741 5741 5741 5741 5740 5739 5738 5737 5736 5735 5735 5734 5733 5733 5733 5732 5732 5731 5731 5730 5729 5729 5728 5728 5727 5725 5724 5723 5722 5722 5721 5720 5718 5717 5715 5713 5711 5710 5708 5707 5705 5704 5703 5702 5701 5700 5700 5700 5700 5700 5700 5699 5700 5701 5701 5702 5702 5703 5703 5704 5704 5704 5705 5706
5718 5721 5722 5723 5725 5726 5727 5728 5729 5730 5731 5731 5731 5732 5733 5734 5736 5737 5737 5737 5737 5737 5737 5737 5737 5737 5736 5735 5734 5733 5732 5732 5731 5731 5730 5730 5729 5729 5728 5728 5727 5726 5726 5725 5724 5724 5723 5721 5720 5720 5719 5718 5717 5716 5714 5713 5712 5710 5708 5707 5705 5704 5702 5701 5700 5699 5698 5698 5698 5697 5697 5697 5697 5698 5698 5699 5699 5699 5700 5700 5700 5701 5701 5701 5702
5715 5717 5719 5720 5722 5723 5724 5724 5725 5726 5727 5727 5728 5729 5730 5731 5732 5733 5733 5734 5734 5733 5733 5733 5733 5733 5732 5731 5731 5730 5729 5729 5728 5728 5727 5727 5726 5726 5725 5725 5724 5723 5723 5722 5721 5720 5720 5719 5718 5717 5716 5716 5715 5714 5712 5711 5709 5708 5707 5705 5704 5702 5701 5699 5698 5697 5696 5696 5695 5695 5695 5695 5695 5695 5696 5696 5696 5696 5697 5697 5697 5697 5698 5698 5699
5711 5712 5714 5717 5718 5719 5720 5720 5721 5722 5723 5724 5725 5726 5727 5728 5729 5730 5730 5730 5730 5730 5730 5730 5730 5730 5729 5728 5728 5727 5726 5726 5725 5725 5724 5723 5723 5723 5722 5722 5721 5720 5720 5719 5718 5717 5716 5716 5715 5714 5713 5713 5713 5711 5710 5708 5707 5706 5705 5704 5702 5701 5699 5698 5696 5695 5695 5694 5694 5693 5693 5693 5693 5693 5693 5693 5693 5693 5694 5694 5694 5694 5694 5695 5696
5707 5709 5712 5713 5714 5714 5715 5717 5718 5719 5719 5721 5722 5723 5724 5725 5726 5726 5727 5726 5726 5726 5726 5726 5726 5726 5726 5725 5724 5724 5723 5723 5722 5722 5721 5720 5720 5720 5719 5719 5718 5718 5717 5716 5715 5714 5713 5713 5712 5711 5710 5710 5710 5709 5707 5706 5705 5704 5703 5702 5701 5699 5698 5696 5695 5694 5693 5692 5692 5691 5691 5691 5690 5690 5690 5690 5690 5690 5691 5691 5691 5691 5691 5692 5693
5704 5706 5709 5710 5710 5711 5712 5713 5714 5715 5716 5718 5719 5720 5721 5722 5722 5723 5723 5723 5723 5723 5723 5723 5723 5722 5722 5721 5721 5721 5720 5720 5719 5718 5718 5717 5717 5716 5716 5716 5715 5715 5714 5714 5713 5712 5711 5710 5709 5708 5708 5707 5706 5705 5704 5703 5702 5701 5700 5700 5699 5698 5696 5695 5694 5692 5691 5690 5690 5690 5689 5689 5688 5688 5687 5687 5687 5688 5688 5688 5688 5689 5689 5689 5689
5702 5703 5705 5707 5707 5708 5708 5709 5710 5712 5714 5715 5716 5717 5717 5718 5719 5719 5719 5719 5720 5720 5720 5719 5719 5719 5718 5718 5717 5717 5717 5716 5716 5715 5715 5714 5714 5713 5713 5712 5712 5712 5711 5711 5710 5709 5708 5707 5706 5705 5705 5704 5703 5702 5701 5701 5700 5699 5698 5697 5697 5696 5695 5694 5693 5691 5690 5689 5689 5688 5688 5687 5687 5686 5686 5686 5685 5685 5685 5685 5686 5686 5686 5686 5687
5699 5700 5701 5703 5704 5705 5705 5706 5707 5709 5711 5712 5713 5713 5714 5715 5715 5716 5716 5716 5716 5716 5716 5716 5716 5715 5715 5714 5714 5714 5713 5713 5712 5712 5712 5711 5710 5710 5710 5709 5709 5709 5708 5708 5707 5706 5706 5705 5704 5703 5702 5701 5701 5700 5699 5698 5697 5696 5696 5695 5694 5693 5693 5692 5692 5690 5689 5688 5687 5687 5686 5686 5685 5685 5684 5684 5684 5683 5683 5683 5684 5684 5684 5684 5684
5696 5697 5698 5700 5701 5702 5702 5703 5704 5706 5707 5709 5710 5710 5711 5712 5712 5712 5713 5713 5713 5713 5713 5713 5712 5712 5712 5711 5711 5710 5710 5709 5709 5709 5708 5708 5707 5707 5707 5706 5706 5706 5705 5705 5704 5704 5703 5702 5701 5701 5700 5699 5698 5697 5697 5696 5695 5694 5693 5692 5692 5691 5691 5690 5690 5689 5688 5687 5686 5685 5685 5684 5684 5683 5683 5683 5682 5682 5681 5681 5682 5682 5682 5682 5682
5692 5694 5695 5697 5697 5698 5699 5700 5702 5703 5705 5706 5707 5707 5708 5709 5709 5709 5709 5709 5709 5709 5709 5709 5709 5709 5708 5708 5707 5707 5707 5706 5706 5706 5705 5705 5704 5704 5703 5703 5702 5702 5702 5701 5701 5700 5700 5699 5698 5698 5697 5696 5696 5695 5694 5693 5692 5692 5691 5690 5689 5689 5688 5688 5687 5687 5686 5685 5685 5684 5683 5683 5682 5682 5682 5681 5681 5680 5680 5680 5680 5680 5680 5680 5680
5689 5691 5692 5694 5694 5695 5697 5698 5699 5700 5702 5703 5703 5704 5705 5705 5706 5706 5706 5706 5706 5706 5706 5706 5705 5705 5705 5704 5704 5704 5704 5703 5703 5703 5702 5702 5701 5701 5700 5699 5699 5698 5698 5697 5697 5696 5696 5696 5695 5695 5694 5693 5693 5692 5692 5691 5690 5689 5689 5688 5687 5686 5686 5685 5685 5684 5684 5683 5683 5682 5681 5681 5680 5680 5680 5680 5679 5679 5679 5678 5678 5678 5678 5678 5677
5686 5688 5690 5691 5692 5693 5694 5696 5697 5697 5698 5699 5700 5701 5701 5702 5702 5702 5703 5703 5703 5703 5702 5702 5702 5701 5701 5701 5701 5701 5701 5701 5700 5699 5699 5698 5698 5697 5697 5696 5696 5695 5695 5694 5694 5693 5693 5692 5692 5691 5691 5690 5690 5689 5689 5688 5688 5687 5686 5685 5685 5684 5683 5683 5682 5682 5681 5681 5681 5680 5680 5679 5678 5678 5677 5677 5677 5677 5676 5676 5676 5675 5675 5675 5675
5683 5685 5687 5688 5689 5691 5692 5693 5694 5695 5695 5696 5697 5698 5698 5699 5699 5699 5699 5700 5699 5699 5699 5698 5698 5698 5698 5698 5698 5698 5698 5697 5697 5696 5696 5695 5695 5694 5694 5694 5693 5693 5692 5692 5691 5691 5690 5690 5689 5689 5688 5687 5687 5686 5686 5685 5685 5684 5683 5683 5682 5681 5681 5680 5679 5679 5678 5678 5678 5678 5677 5677 5676 5676 5675 5675 5674 5674 5673 5673 5673 5672 5672 5671 5671
5681 5683 5684 5686 5687 5688 5689 5690 5691 5692 5693 5694 5694 5695 5695 5696 5696 5696 5696 5696 5696 5696 5695 5695 5695 5695 5695 5695 5695 5695 5695 5694 5694 5693 5693 5692 5692 5692 5691 5691 5691 5690 5690 5689 5689 5688 5688 5687 5686 5686 5685 5685 5684 5683 5683 5682 5682 5681 5680 5680 5679 5678 5677 5677 5676 5675 5675 5674 5674 5674 5674 5673 5673 5673 5672 5672 5672 5671 5670 5670 5669 5669 5668 5668 5667
5678 5680 5682 5683 5685 5686 5687 5687 5688 5689 5690 5691 5692 5692 5693 5693 5693 5693 5693 5693 5693 5693 5692 5692 5692 5692 5692 5692 5692 5691 5691 5691 5691 5690 5690 5690 5689 5689 5689 5689 5688 5688 5687 5687 5686 5685 5685 5684 5683 5683 5682 5682 5681 5680 5680 5679 5678 5678 5677 5676 5676 5675 5674 5674 5673 5672 5671 5671 5670 5670 5669 5669 5669 5669 5669 5668 5668 5667 5667 5666 5665 5665 5664 5664 5663
5676 5678 5679 5681 5682 5683 5684 5685 5686 5687 5687 5688 5689 5689 5690 5690 5690 5690 5690 5690 5690 5690 5690 5689 5689 5689 5689 5689 5689 5688 5688 5688 5688 5688 5687 5687 5687 5687 5687 5686 5686 5685 5685 5684 5683 5683 5682 5681 5680 5680 5679 5678 5678 5677 5677 5676 5675 5675 5674 5673 5672 5672 5671 5670 5669 5669 5668 5667 5666 5665 5665 5665 5665 5665 5664 5664 5663 5662 5662 5661 5661 5660 5660 5659 5659
5674 5676 5677 5679 5680 5680 5681 5682 5683 5684 5684 5685 5686 5686 5686 5687 5687 5687 5687 5687 5687 5687 5687 5687 5687 5686 5686 5686 5686 5685 5685 5685 5685 5685 5685 5685 5684 5684 5684 5684 5683 5683 5682 5681 5681 5680 5679 5678 5678 5677 5676 5675 5674 5674 5673 5673 5672 5671 5671 5670 5669 5668 5667 5667 5666 5665 5664 5663 5663 5662 5661 5661 5660 5660 5659 5659 5659 5658 5657 5657 5656 5656 5655 5654 5654
5672 5674 5675 5676 5677 5677 5678 5679 5680 5681 5681 5682 5683 5683 5683 5683 5683 5684 5684 5684 5684 5684 5684 5684 5684 5684 5684 5683 5683 5683 5683 5683 5682 5682 5682 5682 5682 5682 5681 5681 5680 5680 5679 5679 5678 5677 5676 5676 5675 5674 5673 5672 5671 5671 5670 5670 5669 5668 5668 5667 5666 5665 5664 5663 5662 5662 5661 5660 5659 5658 5658 5657 5656 5655 5654 5654 5653 5653 5653 5652 5652 5651 5650 5649 5649
5670 5671 5672 5673 5674 5674 5675 5676 5677 5678 5678 5679 5679 5680 5680 5680 5680 5681 5681 5681 5681 5681 5681 5681 5681 5681 5681 5681 5681 5680 5680 5680 5680 5679 5679 5679 5679 5679 5678 5678 5678 5677 5676 5676 5675 5674 5673 5672 5672 5671 5670 5669 5668 5668 5667 5666 5665 5665 5664 5663 5663 5662 5661 5660 5659 5658 5658 5657 5656 5655 5654 5654 5653 5652 5651 5650 5649 5648 5648 5647 5647 5647 5646 5645 5644